Year,Month,Day,Hour,Minute,Value (Times are PST for insolation in W/m^2)
2020,03,31,00,00,0.00
2020,03,31,00,01,0.00
2020,03,31,00,02,0.00
2020,03,31,00,03,0.00
2020,03,31,00,04,0.00
2020,03,31,00,05,0.00
2020,03,31,00,06,0.00
2020,03,31,00,07,0.00
2020,03,31,00,08,0.00
2020,03,31,00,09,0.00
2020,03,31,00,10,0.00
2020,03,31,00,11,0.00
2020,03,31,00,12,0.00
2020,03,31,00,13,0.00
2020,03,31,00,14,0.00
2020,03,31,00,15,0.00
2020,03,31,00,16,0.00
2020,03,31,00,17,0.00
2020,03,31,00,18,0.00
2020,03,31,00,19,0.00
2020,03,31,00,20,0.00
2020,03,31,00,21,0.00
2020,03,31,00,22,0.00
2020,03,31,00,23,0.00
2020,03,31,00,24,0.00
2020,03,31,00,25,0.00
2020,03,31,00,26,0.00
2020,03,31,00,27,0.00
2020,03,31,00,28,0.00
2020,03,31,00,29,0.00
2020,03,31,00,30,0.00
2020,03,31,00,31,0.00
2020,03,31,00,32,0.00
2020,03,31,00,33,0.00
2020,03,31,00,34,0.00
2020,03,31,00,35,0.00
2020,03,31,00,36,0.00
2020,03,31,00,37,0.00
2020,03,31,00,38,0.00
2020,03,31,00,39,0.00
2020,03,31,00,40,0.00
2020,03,31,00,41,0.00
2020,03,31,00,42,0.00
2020,03,31,00,43,0.00
2020,03,31,00,44,0.00
2020,03,31,00,45,0.00
2020,03,31,00,46,0.00
2020,03,31,00,47,0.00
2020,03,31,00,48,0.00
2020,03,31,00,49,0.00
2020,03,31,00,50,0.00
2020,03,31,00,51,0.00
2020,03,31,00,52,0.00
2020,03,31,00,53,0.00
2020,03,31,00,54,0.00
2020,03,31,00,55,0.00
2020,03,31,00,56,0.00
2020,03,31,00,57,0.00
2020,03,31,00,58,0.00
2020,03,31,00,59,0.00
2020,03,31,01,00,0.00
2020,03,31,01,01,0.00
2020,03,31,01,02,0.00
2020,03,31,01,03,0.00
2020,03,31,01,04,0.00
2020,03,31,01,05,0.00
2020,03,31,01,06,0.00
2020,03,31,01,07,0.00
2020,03,31,01,08,0.00
2020,03,31,01,09,0.00
2020,03,31,01,10,0.00
2020,03,31,01,11,0.00
2020,03,31,01,12,0.00
2020,03,31,01,13,0.00
2020,03,31,01,14,0.00
2020,03,31,01,15,0.00
2020,03,31,01,16,0.00
2020,03,31,01,17,0.00
2020,03,31,01,18,0.00
2020,03,31,01,19,0.00
2020,03,31,01,20,0.00
2020,03,31,01,21,0.00
2020,03,31,01,22,0.00
2020,03,31,01,23,0.00
2020,03,31,01,24,0.00
2020,03,31,01,25,0.00
2020,03,31,01,26,0.00
2020,03,31,01,27,0.00
2020,03,31,01,28,0.00
2020,03,31,01,29,0.00
2020,03,31,01,30,0.00
2020,03,31,01,31,0.00
2020,03,31,01,32,0.00
2020,03,31,01,33,0.00
2020,03,31,01,34,0.00
2020,03,31,01,35,0.00
2020,03,31,01,36,0.00
2020,03,31,01,37,0.00
2020,03,31,01,38,0.00
2020,03,31,01,39,0.00
2020,03,31,01,40,0.00
2020,03,31,01,41,0.00
2020,03,31,01,42,0.00
2020,03,31,01,43,0.00
2020,03,31,01,44,0.00
2020,03,31,01,45,0.00
2020,03,31,01,46,0.00
2020,03,31,01,47,0.00
2020,03,31,01,48,0.00
2020,03,31,01,49,0.00
2020,03,31,01,50,0.00
2020,03,31,01,51,0.00
2020,03,31,01,52,0.00
2020,03,31,01,53,0.00
2020,03,31,01,54,0.00
2020,03,31,01,55,0.00
2020,03,31,01,56,0.00
2020,03,31,01,57,0.00
2020,03,31,01,58,0.00
2020,03,31,01,59,0.00
2020,03,31,02,00,0.00
2020,03,31,02,01,0.00
2020,03,31,02,02,0.00
2020,03,31,02,03,0.00
2020,03,31,02,04,0.00
2020,03,31,02,05,0.00
2020,03,31,02,06,0.00
2020,03,31,02,07,0.00
2020,03,31,02,08,0.00
2020,03,31,02,09,0.00
2020,03,31,02,10,0.00
2020,03,31,02,11,0.00
2020,03,31,02,12,0.00
2020,03,31,02,13,0.00
2020,03,31,02,14,0.00
2020,03,31,02,15,0.00
2020,03,31,02,16,0.00
2020,03,31,02,17,0.00
2020,03,31,02,18,0.00
2020,03,31,02,19,0.00
2020,03,31,02,20,0.00
2020,03,31,02,21,0.00
2020,03,31,02,22,0.00
2020,03,31,02,23,0.00
2020,03,31,02,24,0.00
2020,03,31,02,25,0.00
2020,03,31,02,26,0.00
2020,03,31,02,27,0.00
2020,03,31,02,28,0.00
2020,03,31,02,29,0.00
2020,03,31,02,30,0.00
2020,03,31,02,31,0.00
2020,03,31,02,32,0.00
2020,03,31,02,33,0.00
2020,03,31,02,34,0.00
2020,03,31,02,35,0.00
2020,03,31,02,36,0.00
2020,03,31,02,37,0.00
2020,03,31,02,38,0.00
2020,03,31,02,39,0.00
2020,03,31,02,40,0.00
2020,03,31,02,41,0.00
2020,03,31,02,42,0.00
2020,03,31,02,43,0.00
2020,03,31,02,44,0.00
2020,03,31,02,45,0.00
2020,03,31,02,46,0.00
2020,03,31,02,47,0.00
2020,03,31,02,48,0.00
2020,03,31,02,49,0.00
2020,03,31,02,50,0.00
2020,03,31,02,51,0.00
2020,03,31,02,52,0.00
2020,03,31,02,53,0.00
2020,03,31,02,54,0.00
2020,03,31,02,55,0.00
2020,03,31,02,56,0.00
2020,03,31,02,57,0.00
2020,03,31,02,58,0.00
2020,03,31,02,59,0.00
2020,03,31,03,00,0.00
2020,03,31,03,01,0.00
2020,03,31,03,02,0.00
2020,03,31,03,03,0.00
2020,03,31,03,04,0.00
2020,03,31,03,05,0.00
2020,03,31,03,06,0.00
2020,03,31,03,07,0.00
2020,03,31,03,08,0.00
2020,03,31,03,09,0.00
2020,03,31,03,10,0.00
2020,03,31,03,11,0.00
2020,03,31,03,12,0.00
2020,03,31,03,13,0.00
2020,03,31,03,14,0.00
2020,03,31,03,15,0.00
2020,03,31,03,16,0.00
2020,03,31,03,17,0.00
2020,03,31,03,18,0.00
2020,03,31,03,19,0.00
2020,03,31,03,20,0.00
2020,03,31,03,21,0.00
2020,03,31,03,22,0.00
2020,03,31,03,23,0.00
2020,03,31,03,24,0.00
2020,03,31,03,25,0.00
2020,03,31,03,26,0.00
2020,03,31,03,27,0.00
2020,03,31,03,28,0.00
2020,03,31,03,29,0.00
2020,03,31,03,30,0.00
2020,03,31,03,31,0.00
2020,03,31,03,32,0.00
2020,03,31,03,33,0.00
2020,03,31,03,34,0.00
2020,03,31,03,35,0.00
2020,03,31,03,36,0.00
2020,03,31,03,37,0.00
2020,03,31,03,38,0.00
2020,03,31,03,39,0.00
2020,03,31,03,40,0.00
2020,03,31,03,41,0.00
2020,03,31,03,42,0.00
2020,03,31,03,43,0.00
2020,03,31,03,44,0.00
2020,03,31,03,45,0.00
2020,03,31,03,46,0.00
2020,03,31,03,47,0.00
2020,03,31,03,48,0.00
2020,03,31,03,49,0.00
2020,03,31,03,50,0.00
2020,03,31,03,51,0.00
2020,03,31,03,52,0.00
2020,03,31,03,53,0.00
2020,03,31,03,54,0.00
2020,03,31,03,55,0.00
2020,03,31,03,56,0.00
2020,03,31,03,57,0.00
2020,03,31,03,58,0.00
2020,03,31,03,59,0.00
2020,03,31,04,00,0.00
2020,03,31,04,01,0.00
2020,03,31,04,02,0.00
2020,03,31,04,03,0.00
2020,03,31,04,04,0.00
2020,03,31,04,05,0.00
2020,03,31,04,06,0.00
2020,03,31,04,07,0.00
2020,03,31,04,08,0.00
2020,03,31,04,09,0.00
2020,03,31,04,10,0.00
2020,03,31,04,11,0.00
2020,03,31,04,12,0.00
2020,03,31,04,13,0.00
2020,03,31,04,14,0.00
2020,03,31,04,15,0.00
2020,03,31,04,16,0.00
2020,03,31,04,17,0.00
2020,03,31,04,18,0.00
2020,03,31,04,19,0.00
2020,03,31,04,20,0.00
2020,03,31,04,21,0.00
2020,03,31,04,22,0.00
2020,03,31,04,23,0.00
2020,03,31,04,24,0.00
2020,03,31,04,25,0.00
2020,03,31,04,26,0.00
2020,03,31,04,27,0.00
2020,03,31,04,28,0.00
2020,03,31,04,29,0.00
2020,03,31,04,30,0.00
2020,03,31,04,31,0.00
2020,03,31,04,32,0.00
2020,03,31,04,33,0.00
2020,03,31,04,34,0.00
2020,03,31,04,35,0.00
2020,03,31,04,36,0.00
2020,03,31,04,37,0.00
2020,03,31,04,38,0.00
2020,03,31,04,39,0.00
2020,03,31,04,40,0.00
2020,03,31,04,41,0.00
2020,03,31,04,42,0.00
2020,03,31,04,43,0.00
2020,03,31,04,44,0.00
2020,03,31,04,45,0.00
2020,03,31,04,46,0.00
2020,03,31,04,47,0.00
2020,03,31,04,48,0.00
2020,03,31,04,49,0.00
2020,03,31,04,50,0.00
2020,03,31,04,51,0.00
2020,03,31,04,52,0.00
2020,03,31,04,53,0.00
2020,03,31,04,54,0.00
2020,03,31,04,55,0.00
2020,03,31,04,56,0.00
2020,03,31,04,57,0.00
2020,03,31,04,58,0.00
2020,03,31,04,59,0.00
2020,03,31,05,00,0.00
2020,03,31,05,01,0.00
2020,03,31,05,02,0.00
2020,03,31,05,03,0.00
2020,03,31,05,04,0.00
2020,03,31,05,05,0.00
2020,03,31,05,06,0.00
2020,03,31,05,07,0.00
2020,03,31,05,08,0.00
2020,03,31,05,09,0.00
2020,03,31,05,10,0.00
2020,03,31,05,11,0.00
2020,03,31,05,12,0.00
2020,03,31,05,13,0.00
2020,03,31,05,14,0.00
2020,03,31,05,15,0.00
2020,03,31,05,16,0.00
2020,03,31,05,17,0.00
2020,03,31,05,18,0.00
2020,03,31,05,19,0.00
2020,03,31,05,20,0.00
2020,03,31,05,21,0.00
2020,03,31,05,22,0.00
2020,03,31,05,23,0.00
2020,03,31,05,24,0.00
2020,03,31,05,25,0.00
2020,03,31,05,26,0.00
2020,03,31,05,27,0.00
2020,03,31,05,28,0.00
2020,03,31,05,29,0.00
2020,03,31,05,30,0.00
2020,03,31,05,31,0.00
2020,03,31,05,32,0.00
2020,03,31,05,33,0.00
2020,03,31,05,34,0.00
2020,03,31,05,35,0.00
2020,03,31,05,36,0.00
2020,03,31,05,37,0.00
2020,03,31,05,38,0.00
2020,03,31,05,39,0.00
2020,03,31,05,40,0.00
2020,03,31,05,41,0.00
2020,03,31,05,42,0.00
2020,03,31,05,43,0.00
2020,03,31,05,44,0.00
2020,03,31,05,45,0.00
2020,03,31,05,46,0.00
2020,03,31,05,47,0.00
2020,03,31,05,48,0.00
2020,03,31,05,49,0.00
2020,03,31,05,50,0.00
2020,03,31,05,51,0.00
2020,03,31,05,52,0.00
2020,03,31,05,53,0.00
2020,03,31,05,54,0.00
2020,03,31,05,55,0.00
2020,03,31,05,56,0.00
2020,03,31,05,57,0.00
2020,03,31,05,58,0.00
2020,03,31,05,59,0.00
2020,03,31,06,00,0.00
2020,03,31,06,01,0.00
2020,03,31,06,02,0.00
2020,03,31,06,03,0.00
2020,03,31,06,04,0.00
2020,03,31,06,05,0.00
2020,03,31,06,06,0.00
2020,03,31,06,07,0.00
2020,03,31,06,08,0.00
2020,03,31,06,09,0.00
2020,03,31,06,10,0.00
2020,03,31,06,11,0.00
2020,03,31,06,12,0.00
2020,03,31,06,13,0.00
2020,03,31,06,14,0.00
2020,03,31,06,15,0.00
2020,03,31,06,16,0.00
2020,03,31,06,17,0.00
2020,03,31,06,18,0.00
2020,03,31,06,19,0.00
2020,03,31,06,20,0.00
2020,03,31,06,21,0.00
2020,03,31,06,22,0.00
2020,03,31,06,23,0.00
2020,03,31,06,24,0.00
2020,03,31,06,25,0.00
2020,03,31,06,26,0.00
2020,03,31,06,27,0.00
2020,03,31,06,28,0.00
2020,03,31,06,29,0.00
2020,03,31,06,30,0.00
2020,03,31,06,31,0.00
2020,03,31,06,32,0.00
2020,03,31,06,33,0.00
2020,03,31,06,34,0.00
2020,03,31,06,35,0.00
2020,03,31,06,36,0.00
2020,03,31,06,37,0.00
2020,03,31,06,38,0.00
2020,03,31,06,39,0.00
2020,03,31,06,40,0.00
2020,03,31,06,41,0.00
2020,03,31,06,42,0.00
2020,03,31,06,43,0.00
2020,03,31,06,44,0.00
2020,03,31,06,45,0.00
2020,03,31,06,46,0.00
2020,03,31,06,47,0.00
2020,03,31,06,48,0.00
2020,03,31,06,49,0.00
2020,03,31,06,50,0.00
2020,03,31,06,51,0.00
2020,03,31,06,52,0.00
2020,03,31,06,53,0.00
2020,03,31,06,54,0.00
2020,03,31,06,55,0.00
2020,03,31,06,56,0.00
2020,03,31,06,57,0.00
2020,03,31,06,58,2.40
2020,03,31,06,59,5.00
2020,03,31,07,00,5.00
2020,03,31,07,01,5.00
2020,03,31,07,02,5.00
2020,03,31,07,03,5.40
2020,03,31,07,04,7.00
2020,03,31,07,05,7.00
2020,03,31,07,06,7.00
2020,03,31,07,07,7.00
2020,03,31,07,08,8.70
2020,03,31,07,09,9.00
2020,03,31,07,10,9.00
2020,03,31,07,11,9.00
2020,03,31,07,12,9.90
2020,03,31,07,13,11.00
2020,03,31,07,14,11.00
2020,03,31,07,15,11.00
2020,03,31,07,16,12.00
2020,03,31,07,17,12.00
2020,03,31,07,18,12.00
2020,03,31,07,19,12.00
2020,03,31,07,20,12.00
2020,03,31,07,21,12.00
2020,03,31,07,22,13.70
2020,03,31,07,23,14.00
2020,03,31,07,24,14.00
2020,03,31,07,25,14.00
2020,03,31,07,26,14.00
2020,03,31,07,27,14.00
2020,03,31,07,28,14.00
2020,03,31,07,29,14.00
2020,03,31,07,30,16.00
2020,03,31,07,31,16.00
2020,03,31,07,32,16.00
2020,03,31,07,33,16.00
2020,03,31,07,34,17.20
2020,03,31,07,35,18.00
2020,03,31,07,36,18.00
2020,03,31,07,37,18.10
2020,03,31,07,38,19.00
2020,03,31,07,39,19.00
2020,03,31,07,40,19.90
2020,03,31,07,41,21.00
2020,03,31,07,42,21.00
2020,03,31,07,43,22.70
2020,03,31,07,44,24.90
2020,03,31,07,45,24.60
2020,03,31,07,46,23.00
2020,03,31,07,47,23.00
2020,03,31,07,48,23.00
2020,03,31,07,49,24.40
2020,03,31,07,50,25.90
2020,03,31,07,51,49.00
2020,03,31,07,52,60.00
2020,03,31,07,53,64.30
2020,03,31,07,54,73.90
2020,03,31,07,55,76.60
2020,03,31,07,56,78.40
2020,03,31,07,57,80.70
2020,03,31,07,58,84.10
2020,03,31,07,59,86.40
2020,03,31,08,00,88.70
2020,03,31,08,01,91.40
2020,03,31,08,02,94.20
2020,03,31,08,03,96.40
2020,03,31,08,04,99.60
2020,03,31,08,05,102.20
2020,03,31,08,06,104.60
2020,03,31,08,07,107.70
2020,03,31,08,08,110.90
2020,03,31,08,09,113.60
2020,03,31,08,10,115.40
2020,03,31,08,11,119.30
2020,03,31,08,12,121.40
2020,03,31,08,13,125.40
2020,03,31,08,14,128.00
2020,03,31,08,15,130.90
2020,03,31,08,16,133.20
2020,03,31,08,17,136.10
2020,03,31,08,18,140.40
2020,03,31,08,19,142.40
2020,03,31,08,20,146.40
2020,03,31,08,21,149.00
2020,03,31,08,22,152.00
2020,03,31,08,23,154.20
2020,03,31,08,24,157.10
2020,03,31,08,25,161.30
2020,03,31,08,26,163.40
2020,03,31,08,27,167.40
2020,03,31,08,28,170.00
2020,03,31,08,29,172.90
2020,03,31,08,30,176.30
2020,03,31,08,31,180.20
2020,03,31,08,32,182.70
2020,03,31,08,33,186.10
2020,03,31,08,34,188.90
2020,03,31,08,35,192.40
2020,03,31,08,36,194.90
2020,03,31,08,37,197.00
2020,03,31,08,38,200.60
2020,03,31,08,39,205.30
2020,03,31,08,40,207.40
2020,03,31,08,41,211.40
2020,03,31,08,42,214.00
2020,03,31,08,43,216.90
2020,03,31,08,44,219.20
2020,03,31,08,45,222.20
2020,03,31,08,46,224.70
2020,03,31,08,47,229.00
2020,03,31,08,48,230.90
2020,03,31,08,49,235.10
2020,03,31,08,50,238.00
2020,03,31,08,51,241.40
2020,03,31,08,52,245.20
2020,03,31,08,53,247.70
2020,03,31,08,54,251.10
2020,03,31,08,55,253.90
2020,03,31,08,56,258.00
2020,03,31,08,57,261.00
2020,03,31,08,58,263.80
2020,03,31,08,59,267.90
2020,03,31,09,00,270.70
2020,03,31,09,01,274.40
2020,03,31,09,02,278.60
2020,03,31,09,03,282.90
2020,03,31,09,04,287.50
2020,03,31,09,05,289.20
2020,03,31,09,06,292.90
2020,03,31,09,07,296.50
2020,03,31,09,08,300.90
2020,03,31,09,09,302.10
2020,03,31,09,10,306.00
2020,03,31,09,11,305.10
2020,03,31,09,12,308.20
2020,03,31,09,13,307.40
2020,03,31,09,14,301.70
2020,03,31,09,15,321.40
2020,03,31,09,16,315.30
2020,03,31,09,17,326.90
2020,03,31,09,18,326.20
2020,03,31,09,19,334.70
2020,03,31,09,20,345.50
2020,03,31,09,21,351.40
2020,03,31,09,22,352.50
2020,03,31,09,23,359.20
2020,03,31,09,24,360.00
2020,03,31,09,25,366.00
2020,03,31,09,26,376.00
2020,03,31,09,27,380.20
2020,03,31,09,28,376.70
2020,03,31,09,29,385.00
2020,03,31,09,30,388.50
2020,03,31,09,31,395.70
2020,03,31,09,32,407.90
2020,03,31,09,33,408.80
2020,03,31,09,34,415.50
2020,03,31,09,35,340.00
2020,03,31,09,36,344.90
2020,03,31,09,37,353.40
2020,03,31,09,38,364.00
2020,03,31,09,39,367.90
2020,03,31,09,40,363.20
2020,03,31,09,41,371.50
2020,03,31,09,42,374.00
2020,03,31,09,43,188.40
2020,03,31,09,44,163.00
2020,03,31,09,45,166.20
2020,03,31,09,46,178.50
2020,03,31,09,47,190.10
2020,03,31,09,48,198.00
2020,03,31,09,49,231.90
2020,03,31,09,50,227.90
2020,03,31,09,51,269.00
2020,03,31,09,52,269.00
2020,03,31,09,53,238.80
2020,03,31,09,54,247.70
2020,03,31,09,55,264.40
2020,03,31,09,56,260.00
2020,03,31,09,57,401.00
2020,03,31,09,58,358.40
2020,03,31,09,59,206.10
2020,03,31,10,00,214.00
2020,03,31,10,01,314.80
2020,03,31,10,02,375.70
2020,03,31,10,03,374.00
2020,03,31,10,04,348.60
2020,03,31,10,05,369.00
2020,03,31,10,06,369.00
2020,03,31,10,07,345.30
2020,03,31,10,08,324.40
2020,03,31,10,09,344.80
2020,03,31,10,10,386.00
2020,03,31,10,11,412.20
2020,03,31,10,12,413.00
2020,03,31,10,13,423.00
2020,03,31,10,14,441.00
2020,03,31,10,15,434.90
2020,03,31,10,16,433.10
2020,03,31,10,17,420.80
2020,03,31,10,18,405.80
2020,03,31,10,19,387.60
2020,03,31,10,20,394.50
2020,03,31,10,21,405.50
2020,03,31,10,22,395.20
2020,03,31,10,23,414.10
2020,03,31,10,24,419.20
2020,03,31,10,25,467.20
2020,03,31,10,26,490.60
2020,03,31,10,27,467.00
2020,03,31,10,28,456.20
2020,03,31,10,29,485.00
2020,03,31,10,30,489.50
2020,03,31,10,31,477.60
2020,03,31,10,32,472.50
2020,03,31,10,33,487.30
2020,03,31,10,34,501.60
2020,03,31,10,35,491.00
2020,03,31,10,36,485.40
2020,03,31,10,37,489.10
2020,03,31,10,38,485.70
2020,03,31,10,39,527.80
2020,03,31,10,40,510.10
2020,03,31,10,41,478.80
2020,03,31,10,42,441.50
2020,03,31,10,43,429.40
2020,03,31,10,44,454.60
2020,03,31,10,45,494.20
2020,03,31,10,46,502.80
2020,03,31,10,47,474.90
2020,03,31,10,48,461.70
2020,03,31,10,49,438.70
2020,03,31,10,50,435.60
2020,03,31,10,51,438.00
2020,03,31,10,52,438.00
2020,03,31,10,53,448.70
2020,03,31,10,54,524.70
2020,03,31,10,55,489.80
2020,03,31,10,56,479.90
2020,03,31,10,57,438.00
2020,03,31,10,58,438.00
2020,03,31,10,59,438.00
2020,03,31,11,00,504.50
2020,03,31,11,01,530.60
2020,03,31,11,02,549.00
2020,03,31,11,03,597.70
2020,03,31,11,04,614.20
2020,03,31,11,05,625.00
2020,03,31,11,06,590.30
2020,03,31,11,07,628.30
2020,03,31,11,08,588.60
2020,03,31,11,09,600.50
2020,03,31,11,10,601.00
2020,03,31,11,11,623.20
2020,03,31,11,12,644.20
2020,03,31,11,13,662.30
2020,03,31,11,14,665.50
2020,03,31,11,15,646.50
2020,03,31,11,16,632.70
2020,03,31,11,17,575.00
2020,03,31,11,18,541.20
2020,03,31,11,19,511.60
2020,03,31,11,20,498.00
2020,03,31,11,21,495.20
2020,03,31,11,22,482.60
2020,03,31,11,23,490.40
2020,03,31,11,24,501.50
2020,03,31,11,25,534.00
2020,03,31,11,26,526.40
2020,03,31,11,27,537.10
2020,03,31,11,28,549.10
2020,03,31,11,29,583.90
2020,03,31,11,30,605.30
2020,03,31,11,31,614.60
2020,03,31,11,32,560.50
2020,03,31,11,33,515.80
2020,03,31,11,34,486.90
2020,03,31,11,35,487.80
2020,03,31,11,36,458.80
2020,03,31,11,37,404.80
2020,03,31,11,38,419.40
2020,03,31,11,39,440.70
2020,03,31,11,40,431.50
2020,03,31,11,41,429.00
2020,03,31,11,42,439.10
2020,03,31,11,43,427.90
2020,03,31,11,44,453.50
2020,03,31,11,45,513.50
2020,03,31,11,46,580.60
2020,03,31,11,47,660.60
2020,03,31,11,48,674.00
2020,03,31,11,49,691.20
2020,03,31,11,50,688.40
2020,03,31,11,51,712.70
2020,03,31,11,52,714.50
2020,03,31,11,53,695.00
2020,03,31,11,54,665.60
2020,03,31,11,55,701.20
2020,03,31,11,56,743.60
2020,03,31,11,57,743.40
2020,03,31,11,58,760.50
2020,03,31,11,59,755.50
2020,03,31,12,00,696.30
2020,03,31,12,01,654.50
2020,03,31,12,02,713.40
2020,03,31,12,03,743.00
2020,03,31,12,04,707.30
2020,03,31,12,05,720.30
2020,03,31,12,06,714.80
2020,03,31,12,07,694.20
2020,03,31,12,08,705.70
2020,03,31,12,09,698.60
2020,03,31,12,10,704.90
2020,03,31,12,11,647.20
2020,03,31,12,12,652.60
2020,03,31,12,13,644.40
2020,03,31,12,14,628.60
2020,03,31,12,15,634.00
2020,03,31,12,16,590.00
2020,03,31,12,17,664.10
2020,03,31,12,18,701.00
2020,03,31,12,19,679.20
2020,03,31,12,20,634.40
2020,03,31,12,21,594.00
2020,03,31,12,22,577.50
2020,03,31,12,23,556.00
2020,03,31,12,24,585.30
2020,03,31,12,25,615.40
2020,03,31,12,26,580.10
2020,03,31,12,27,578.80
2020,03,31,12,28,599.00
2020,03,31,12,29,619.40
2020,03,31,12,30,621.40
2020,03,31,12,31,671.60
2020,03,31,12,32,681.20
2020,03,31,12,33,687.80
2020,03,31,12,34,698.90
2020,03,31,12,35,729.10
2020,03,31,12,36,746.40
2020,03,31,12,37,789.20
2020,03,31,12,38,789.50
2020,03,31,12,39,767.10
2020,03,31,12,40,734.80
2020,03,31,12,41,752.50
2020,03,31,12,42,753.30
2020,03,31,12,43,738.40
2020,03,31,12,44,736.70
2020,03,31,12,45,737.10
2020,03,31,12,46,742.50
2020,03,31,12,47,758.70
2020,03,31,12,48,756.10
2020,03,31,12,49,729.70
2020,03,31,12,50,714.00
2020,03,31,12,51,704.60
2020,03,31,12,52,696.00
2020,03,31,12,53,653.50
2020,03,31,12,54,652.00
2020,03,31,12,55,672.40
2020,03,31,12,56,714.20
2020,03,31,12,57,723.10
2020,03,31,12,58,698.00
2020,03,31,12,59,668.90
2020,03,31,13,00,640.00
2020,03,31,13,01,628.00
2020,03,31,13,02,630.60
2020,03,31,13,03,642.70
2020,03,31,13,04,642.00
2020,03,31,13,05,651.60
2020,03,31,13,06,674.00
2020,03,31,13,07,707.00
2020,03,31,13,08,683.80
2020,03,31,13,09,636.90
2020,03,31,13,10,620.10
2020,03,31,13,11,622.40
2020,03,31,13,12,602.90
2020,03,31,13,13,682.10
2020,03,31,13,14,677.00
2020,03,31,13,15,677.00
2020,03,31,13,16,739.80
2020,03,31,13,17,799.70
2020,03,31,13,18,782.10
2020,03,31,13,19,781.10
2020,03,31,13,20,806.50
2020,03,31,13,21,776.10
2020,03,31,13,22,737.10
2020,03,31,13,23,717.50
2020,03,31,13,24,707.20
2020,03,31,13,25,675.00
2020,03,31,13,26,666.80
2020,03,31,13,27,722.00
2020,03,31,13,28,722.00
2020,03,31,13,29,747.20
2020,03,31,13,30,799.00
2020,03,31,13,31,806.60
2020,03,31,13,32,809.00
2020,03,31,13,33,385.60
2020,03,31,13,34,302.20
2020,03,31,13,35,316.60
2020,03,31,13,36,348.00
2020,03,31,13,37,479.40
2020,03,31,13,38,631.00
2020,03,31,13,39,631.00
2020,03,31,13,40,631.00
2020,03,31,13,41,619.30
2020,03,31,13,42,522.00
2020,03,31,13,43,634.10
2020,03,31,13,44,856.80
2020,03,31,13,45,875.90
2020,03,31,13,46,864.60
2020,03,31,13,47,800.10
2020,03,31,13,48,799.80
2020,03,31,13,49,896.50
2020,03,31,13,50,891.00
2020,03,31,13,51,891.00
2020,03,31,13,52,891.00
2020,03,31,13,53,891.00
2020,03,31,13,54,891.00
2020,03,31,13,55,353.00
2020,03,31,13,56,353.00
2020,03,31,13,57,383.30
2020,03,31,13,58,441.00
2020,03,31,13,59,788.30
2020,03,31,14,00,1013.00
2020,03,31,14,01,525.60
2020,03,31,14,02,436.00
2020,03,31,14,03,556.40
2020,03,31,14,04,969.70
2020,03,31,14,05,916.00
2020,03,31,14,06,916.00
2020,03,31,14,07,916.00
2020,03,31,14,08,916.00
2020,03,31,14,09,916.00
2020,03,31,14,10,770.30
2020,03,31,14,11,220.60
2020,03,31,14,12,184.60
2020,03,31,14,13,182.20
2020,03,31,14,14,183.00
2020,03,31,14,15,190.40
2020,03,31,14,16,192.10
2020,03,31,14,17,193.00
2020,03,31,14,18,193.00
2020,03,31,14,19,203.10
2020,03,31,14,20,234.60
2020,03,31,14,21,248.00
2020,03,31,14,22,248.00
2020,03,31,14,23,740.50
2020,03,31,14,24,769.30
2020,03,31,14,25,723.40
2020,03,31,14,26,756.00
2020,03,31,14,27,790.00
2020,03,31,14,28,812.00
2020,03,31,14,29,338.90
2020,03,31,14,30,236.00
2020,03,31,14,31,379.40
2020,03,31,14,32,905.00
2020,03,31,14,33,905.00
2020,03,31,14,34,906.20
2020,03,31,14,35,931.80
2020,03,31,14,36,940.00
2020,03,31,14,37,940.00
2020,03,31,14,38,792.50
2020,03,31,14,39,329.00
2020,03,31,14,40,329.00
2020,03,31,14,41,329.00
2020,03,31,14,42,316.00
2020,03,31,14,43,294.70
2020,03,31,14,44,285.20
2020,03,31,14,45,284.00
2020,03,31,14,46,279.20
2020,03,31,14,47,268.60
2020,03,31,14,48,250.60
2020,03,31,14,49,235.40
2020,03,31,14,50,222.60
2020,03,31,14,51,210.70
2020,03,31,14,52,200.30
2020,03,31,14,53,193.20
2020,03,31,14,54,188.10
2020,03,31,14,55,186.00
2020,03,31,14,56,182.40
2020,03,31,14,57,175.00
2020,03,31,14,58,169.40
2020,03,31,14,59,174.20
2020,03,31,15,00,190.30
2020,03,31,15,01,207.00
2020,03,31,15,02,207.00
2020,03,31,15,03,208.50
2020,03,31,15,04,207.30
2020,03,31,15,05,207.70
2020,03,31,15,06,214.90
2020,03,31,15,07,221.20
2020,03,31,15,08,227.90
2020,03,31,15,09,220.20
2020,03,31,15,10,189.00
2020,03,31,15,11,161.00
2020,03,31,15,12,147.10
2020,03,31,15,13,153.00
2020,03,31,15,14,332.60
2020,03,31,15,15,667.10
2020,03,31,15,16,694.80
2020,03,31,15,17,695.00
2020,03,31,15,18,696.80
2020,03,31,15,19,700.20
2020,03,31,15,20,706.00
2020,03,31,15,21,717.00
2020,03,31,15,22,710.50
2020,03,31,15,23,698.90
2020,03,31,15,24,692.40
2020,03,31,15,25,698.70
2020,03,31,15,26,673.80
2020,03,31,15,27,673.40
2020,03,31,15,28,677.60
2020,03,31,15,29,667.90
2020,03,31,15,30,670.00
2020,03,31,15,31,664.80
2020,03,31,15,32,665.60
2020,03,31,15,33,673.20
2020,03,31,15,34,653.00
2020,03,31,15,35,650.00
2020,03,31,15,36,416.00
2020,03,31,15,37,146.00
2020,03,31,15,38,146.00
2020,03,31,15,39,629.40
2020,03,31,15,40,693.60
2020,03,31,15,41,691.50
2020,03,31,15,42,687.00
2020,03,31,15,43,689.90
2020,03,31,15,44,688.00
2020,03,31,15,45,696.10
2020,03,31,15,46,700.00
2020,03,31,15,47,694.20
2020,03,31,15,48,696.80
2020,03,31,15,49,714.50
2020,03,31,15,50,731.40
2020,03,31,15,51,730.80
2020,03,31,15,52,713.70
2020,03,31,15,53,715.70
2020,03,31,15,54,685.20
2020,03,31,15,55,684.00
2020,03,31,15,56,690.10
2020,03,31,15,57,695.00
2020,03,31,15,58,667.80
2020,03,31,15,59,626.10
2020,03,31,16,00,589.50
2020,03,31,16,01,671.80
2020,03,31,16,02,697.00
2020,03,31,16,03,701.90
2020,03,31,16,04,639.40
2020,03,31,16,05,603.00
2020,03,31,16,06,363.00
2020,03,31,16,07,261.20
2020,03,31,16,08,186.70
2020,03,31,16,09,177.10
2020,03,31,16,10,186.00
2020,03,31,16,11,201.50
2020,03,31,16,12,203.10
2020,03,31,16,13,194.00
2020,03,31,16,14,198.00
2020,03,31,16,15,192.20
2020,03,31,16,16,192.20
2020,03,31,16,17,190.60
2020,03,31,16,18,182.50
2020,03,31,16,19,174.80
2020,03,31,16,20,167.00
2020,03,31,16,21,160.90
2020,03,31,16,22,157.80
2020,03,31,16,23,154.90
2020,03,31,16,24,150.00
2020,03,31,16,25,145.10
2020,03,31,16,26,139.00
2020,03,31,16,27,133.40
2020,03,31,16,28,127.70
2020,03,31,16,29,124.60
2020,03,31,16,30,121.00
2020,03,31,16,31,120.60
2020,03,31,16,32,120.50
2020,03,31,16,33,122.20
2020,03,31,16,34,124.40
2020,03,31,16,35,126.70
2020,03,31,16,36,128.00
2020,03,31,16,37,128.40
2020,03,31,16,38,130.60
2020,03,31,16,39,133.00
2020,03,31,16,40,134.00
2020,03,31,16,41,136.20
2020,03,31,16,42,140.40
2020,03,31,16,43,144.30
2020,03,31,16,44,148.60
2020,03,31,16,45,152.40
2020,03,31,16,46,157.30
2020,03,31,16,47,163.00
2020,03,31,16,48,169.30
2020,03,31,16,49,175.30
2020,03,31,16,50,181.80
2020,03,31,16,51,191.10
2020,03,31,16,52,196.30
2020,03,31,16,53,202.90
2020,03,31,16,54,207.00
2020,03,31,16,55,222.70
2020,03,31,16,56,237.60
2020,03,31,16,57,252.50
2020,03,31,16,58,268.90
2020,03,31,16,59,285.90
2020,03,31,17,00,301.20
2020,03,31,17,01,327.40
2020,03,31,17,02,353.00
2020,03,31,17,03,373.10
2020,03,31,17,04,389.10
2020,03,31,17,05,418.00
2020,03,31,17,06,466.90
2020,03,31,17,07,530.90
2020,03,31,17,08,564.40
2020,03,31,17,09,571.00
2020,03,31,17,10,554.80
2020,03,31,17,11,528.10
2020,03,31,17,12,529.00
2020,03,31,17,13,516.10
2020,03,31,17,14,495.80